Location: Key Biscayne
(25.6930°N, 80.1630°W)
Time: 20:50:21
(UTC-05:00)

Hubble Space Telescope - Pass Details

Date: 14 November 2017
Orbit: 537 x 541 km, 28.5° (Epoch: 24 November)

Event Time Altitude Azimuth Distance (km) Brightness Sun altitude
Exits shadow 05:05:16 12° 201° (SSW) 1,636 3.1 -20.9°
Maximum altitude 05:08:01 22° 154° (SSE) 1,185 2.9 -20.3°
Drops below altitude 10° 05:11:15 10° 102° (ESE) 1,780 4.7 -19.6°
Sets 05:13:52 0° 87° (E) 2,673 5.8 -19.0°
